CAPE
nan nan nan nan nan nan nan nan nan nan nan nan nan nan nan nan nan nan nan nan nan nan nan nan nan nan nan nan nan nan nan 0 0 0 0 0 1 1 3 6 6 13 16 20 20 20 23 28 28 37 39 37 36 36 34 36 36 38 44 51 51 55 60 68 68 78 92 103 112 112 121 132 150 150 176 202 216 216 234 223 223 231 220 225 225 229
nan nan nan nan nan nan nan nan nan nan nan nan nan nan nan nan nan nan nan nan nan nan nan nan nan nan nan nan nan nan nan 0 0 0 0 0 1 1 2 6 6 13 15 14 14 16 20 26 26 32 30 26 24 24 23 28 28 29 35 41 41 44 49 56 56 66 79 92 103 103 118 133 158 158 183 208 217 217 221 211 211 227 246 263 263 289
nan nan nan nan nan nan nan nan nan nan nan nan nan nan nan nan nan nan nan nan nan nan nan nan nan nan nan nan 0 0 0 0 0 0 0 0 1 1 2 4 4 9 10 15 15 15 22 28 28 27 25 21 18 18 18 22 22 25 29 32 32 39 45 49 49 55 63 75 90 90 108 133 159 159 182 199 202 202 193 214 214 235 262 272 272 282
nan nan nan nan nan nan nan nan nan nan nan nan nan nan nan nan nan nan nan nan nan nan nan nan nan nan nan nan 0 0 0 0 0 0 0 0 0 0 1 3 3 5 10 13 13 16 25 25 25 24 20 16 14 14 16 19 19 23 25 28 28 33 39 44 44 45 48 59 73 73 89 116 145 145 172 174 183 183 190 221 221 261 258 241 241 219
nan nan nan nan nan nan nan nan nan nan nan nan nan nan nan nan nan nan nan nan nan nan nan nan nan nan nan nan nan nan 1 1 0 0 0 nan nan nan nan 1 1 4 11 13 13 20 23 26 26 19 14 12 12 12 15 16 16 20 25 29 29 33 36 39 39 40 44 53 61 61 81 109 136 136 160 174 179 179 194 216 216 247 245 221 221 214
nan nan nan nan nan nan nan nan nan nan nan nan nan nan nan nan nan nan 0 0 0 0 nan nan nan nan nan nan 0 0 1 0 0 0 nan nan nan nan nan 0 0 2 7 14 14 23 29 19 19 14 10 7 10 10 14 16 16 20 23 29 29 32 35 37 37 39 44 53 66 66 82 105 134 134 159 175 177 177 186 201 201 232 227 234 234 240
nan nan nan nan nan nan nan nan nan nan nan nan nan nan nan 0 2 2 2 2 2 2 2 2 2 1 nan 0 2 2 2 0 0 0 nan nan nan nan nan nan nan 2 10 17 17 31 28 16 16 10 7 6 8 8 11 14 14 17 22 25 25 29 34 36 36 42 47 56 69 69 88 114 136 136 160 175 175 175 172 188 188 219 237 258 258 282
nan nan nan nan nan nan nan nan nan nan nan nan 0 0 1 1 2 2 8 15 15 19 13 12 12 11 7 1 nan nan nan nan nan nan nan nan nan nan 0 2 2 9 16 23 23 17 10 6 6 4 2 2 4 4 8 11 11 14 16 17 17 20 26 33 33 45 60 72 92 92 113 128 142 142 153 160 155 155 150 160 160 184 228 275 275 318
nan nan nan nan nan nan nan nan nan nan 0 2 4 4 2 2 3 3 4 5 5 11 7 4 4 5 7 8 1 1 0 1 nan nan nan nan nan nan nan 4 4 8 10 9 9 5 4 2 2 1 1 1 4 4 5 9 9 12 14 16 16 20 27 37 37 52 65 82 100 100 113 123 137 137 143 145 145 145 136 143 143 175 224 269 269 300
nan nan nan nan nan nan nan nan nan nan 7 7 10 10 9 6 6 6 9 7 7 10 5 3 3 1 2 11 10 10 3 4 9 9 6 0 2 2 0 0 0 0 1 1 1 1 1 0 0 nan 0 1 3 3 5 6 6 9 12 16 16 22 32 44 44 56 71 86 107 107 120 125 129 129 132 133 135 135 143 148 148 173 208 247 247 267
nan nan nan nan nan nan 1 1 3 3 13 14 19 19 20 15 14 14 12 9 9 7 2 2 2 2 2 3 9 9 8 2 1 1 4 3 1 1 1 0 0 nan 0 0 0 nan nan nan nan nan nan 1 2 2 4 5 5 8 13 20 20 28 36 47 47 62 74 90 103 103 114 117 115 115 113 122 129 129 144 161 161 180 198 214 214 218
nan nan nan 0 0 0 3 5 15 15 21 19 16 16 12 11 13 13 5 4 4 1 1 3 3 7 9 8 8 8 10 4 0 0 0 1 2 2 0 nan nan nan nan nan nan nan nan nan nan nan nan 0 2 2 2 4 4 8 15 23 23 33 40 50 50 65 77 90 98 98 97 99 98 98 100 109 126 126 146 158 158 175 183 186 186 188
0 0 1 2 2 4 7 11 16 16 16 10 5 5 3 4 5 5 8 5 5 4 3 5 5 11 16 16 10 10 8 6 3 3 0 0 0 0 nan nan nan nan nan nan nan nan nan nan nan nan nan nan 1 1 2 5 5 10 19 28 28 35 44 55 55 66 72 82 79 79 76 79 86 86 92 102 125 125 138 149 149 165 167 174 174 183
0 1 3 5 5 9 10 12 9 9 5 2 2 2 5 8 9 9 7 8 8 8 11 21 21 19 16 13 10 10 11 10 6 6 2 2 1 1 0 0 0 nan nan nan nan nan nan nan nan nan nan nan 0 0 1 5 5 14 23 33 33 40 48 57 57 64 68 71 64 64 62 64 74 74 86 95 112 112 122 133 133 147 162 168 168 184
3 4 6 8 8 10 7 6 4 4 4 5 8 8 12 14 9 9 6 12 12 15 18 20 20 18 12 7 5 5 14 12 11 11 9 10 10 10 5 3 3 0 nan nan nan nan nan nan nan nan nan nan nan nan 0 4 4 18 28 37 37 46 53 58 58 61 59 55 51 51 52 55 63 63 70 83 97 97 106 120 120 135 150 169 169 190
7 9 12 14 14 9 7 6 7 7 8 12 13 13 12 9 12 12 19 26 26 25 23 24 24 16 11 11 10 10 11 17 23 23 16 15 14 14 12 6 6 1 nan nan nan nan nan nan nan nan nan nan nan nan 1 9 9 22 32 40 40 49 55 58 58 51 47 46 44 44 45 46 48 48 58 67 79 79 92 108 108 128 147 166 166 191
17 14 11 12 12 8 8 9 13 13 16 17 17 17 15 14 19 19 23 25 25 24 25 24 24 13 9 12 26 26 25 24 28 28 21 21 24 24 19 4 4 0 nan nan nan nan nan nan nan nan nan nan nan nan 2 12 12 23 35 42 42 48 51 47 47 44 40 39 39 39 38 39 40 40 42 51 66 66 83 103 103 121 140 165 165 182
16 17 15 10 10 8 9 13 17 17 22 18 14 14 13 24 28 28 22 17 17 18 22 19 19 8 7 10 29 29 16 5 8 8 13 23 21 21 14 1 1 nan nan nan nan nan nan nan nan nan nan nan 0 0 5 13 13 25 34 39 39 41 41 37 37 34 34 35 35 35 34 33 33 33 33 39 51 51 69 88 88 112 132 151 151 160
14 10 9 6 6 8 13 17 15 15 15 16 13 13 12 20 23 23 23 20 20 20 17 8 8 6 6 5 43 43 nan nan 1 1 2 4 8 8 5 1 1 0 nan nan nan nan nan nan nan nan nan 0 1 1 6 17 17 29 36 38 38 36 32 30 30 32 32 33 30 30 29 28 27 27 28 33 44 44 59 79 79 98 116 135 135 156
12 8 11 11 11 15 16 14 13 13 18 24 28 28 25 21 16 16 22 26 26 20 22 15 15 8 9 8 39 39 2 nan 0 0 0 1 6 6 4 1 1 0 nan nan nan nan nan nan nan nan nan 0 3 3 9 20 20 30 36 35 35 30 26 25 25 28 28 27 27 27 24 25 24 24 27 31 37 37 56 70 70 90 101 125 125 139
11 14 18 23 23 18 11 10 20 20 30 41 38 38 34 20 11 11 25 34 34 38 53 29 29 40 48 48 66 66 6 1 1 1 0 2 5 5 3 1 1 nan nan nan nan nan nan nan nan nan nan 0 4 4 12 21 21 31 30 26 26 20 20 21 21 23 23 22 22 22 21 23 25 25 26 29 33 33 49 67 67 84 103 115 115 119
14 16 21 25 25 13 12 16 35 35 48 58 26 26 28 33 34 34 47 42 42 51 51 59 59 82 79 60 85 85 10 2 0 0 nan 0 3 3 2 0 0 nan nan nan nan nan nan nan nan nan nan 1 6 6 13 20 20 24 20 17 17 16 18 19 19 19 19 19 20 20 20 20 24 24 26 28 31 31 47 64 64 81 98 106 106 115
18 15 13 17 17 15 17 28 41 41 56 42 54 54 48 48 23 23 19 25 25 30 38 41 41 53 37 19 33 33 15 3 nan nan nan 1 2 2 0 nan nan nan nan nan nan nan nan nan nan nan nan 3 6 6 11 14 14 14 12 11 11 13 15 15 15 15 16 16 16 16 18 20 23 23 26 28 31 31 46 62 62 80 91 101 101 105
26 26 25 28 28 37 44 41 33 33 36 27 26 26 19 7 5 5 6 22 22 28 33 31 31 12 7 7 7 7 8 nan nan nan nan 1 0 0 nan nan nan nan nan nan nan nan nan nan nan nan nan 2 5 5 7 7 7 7 7 9 9 11 11 11 11 11 10 12 12 12 15 19 22 22 26 26 33 33 43 59 59 68 85 87 87 90
35 34 31 36 36 70 58 22 42 42 41 31 16 16 13 40 60 60 67 46 46 41 28 20 20 14 15 33 38 38 2 nan nan nan 0 0 nan nan nan nan nan nan nan nan nan nan nan nan nan nan nan 0 2 2 3 4 4 5 6 7 7 7 7 7 7 7 7 7 9 9 13 16 20 20 23 25 30 30 45 57 57 68 76 78 78 80
43 38 39 51 51 86 98 106 91 91 69 67 68 68 90 100 118 118 89 57 57 41 30 26 26 26 38 45 65 65 0 nan nan nan nan 0 nan nan nan nan nan nan nan nan nan nan nan nan nan nan nan nan 0 0 1 2 2 3 4 5 5 5 5 5 5 4 4 5 7 7 11 15 18 18 18 20 26 26 36 44 44 59 68 65 65 65
54 59 68 79 79 84 76 52 54 54 69 77 64 64 57 53 55 55 38 33 33 40 39 31 31 36 42 54 52 52 0 nan nan nan nan nan nan nan nan nan nan nan nan nan nan nan nan nan nan nan nan nan nan nan 0 1 1 2 3 3 3 3 3 2 2 1 2 3 6 6 8 12 14 14 17 17 26 26 32 39 39 45 55 55 55 54
59 65 71 64 64 56 41 38 45 45 53 69 86 86 66 48 23 23 15 27 27 46 44 36 36 36 42 46 49 49 nan nan nan nan nan nan nan nan nan nan nan nan nan nan nan nan nan nan nan nan nan nan nan nan nan 1 1 1 1 1 1 1 1 0 0 0 1 2 3 3 5 8 10 10 13 14 22 22 27 37 37 48 53 31 31 16
53 48 44 43 43 45 47 53 50 50 46 56 63 63 62 47 25 25 22 33 33 47 38 34 34 40 42 43 33 33 0 0 nan nan nan nan nan nan nan 0 0 0 0 nan nan nan nan nan nan nan nan nan nan nan nan 0 0 nan 0 0 0 0 0 nan nan nan 0 0 1 1 3 5 7 7 8 10 16 16 24 33 33 42 35 24 24 14
50 44 48 51 51 50 56 55 50 50 47 50 59 59 48 36 34 34 32 42 42 42 39 42 42 46 40 27 16 16 4 2 nan nan nan nan 0 0 0 1 1 1 1 0 0 nan nan nan nan nan nan nan nan nan nan nan nan nan nan nan nan nan nan nan nan nan nan 0 0 0 1 3 4 4 5 7 12 12 19 34 34 28 21 16 16 14
48 39 45 43 43 37 36 36 37 37 45 42 37 37 22 24 31 31 35 44 44 37 42 42 42 45 31 11 6 6 7 3 nan nan nan 1 2 2 2 1 1 1 2 2 2 0 nan nan nan nan nan nan nan nan nan nan nan nan nan nan nan nan nan nan nan nan nan nan nan nan 0 1 2 2 4 6 11 11 18 27 27 27 17 16 16 17
17 14 13 7 7 3 2 7 12 12 15 16 14 14 11 6 6 6 11 18 18 27 31 27 27 12 2 4 6 6 6 8 10 10 10 9 7 7 6 5 5 3 3 7 7 6 2 0 0 nan nan nan nan nan nan nan nan nan nan nan nan nan nan nan nan nan nan nan nan nan nan 0 1 1 3 6 13 13 22 28 28 31 23 19 19 23
2 2 4 3 3 3 3 4 6 6 11 14 17 17 16 11 8 8 10 16 16 14 12 8 8 3 4 7 8 8 8 11 18 18 16 9 7 7 5 5 5 4 3 4 4 4 3 1 1 nan nan nan nan nan nan nan nan nan nan nan nan nan nan nan nan nan nan nan nan nan nan nan 1 1 3 8 15 15 26 31 31 36 37 16 16 19
0 2 2 2 2 2 2 3 5 5 8 12 17 17 19 15 9 9 10 13 13 9 5 2 2 5 9 10 9 9 12 16 20 20 17 8 6 6 4 5 5 5 5 3 3 3 2 0 0 0 nan nan nan nan nan nan nan nan nan nan nan nan nan nan nan nan nan nan nan nan nan nan 2 2 4 10 19 19 26 33 33 37 37 24 24 17
0 0 0 1 1 2 3 4 6 6 8 9 14 14 18 15 8 8 5 6 6 4 1 0 0 1 10 13 12 12 12 12 19 19 17 9 7 7 4 3 3 4 5 4 4 4 3 1 1 1 nan nan nan nan nan nan nan nan nan nan nan nan nan nan nan nan nan nan nan nan nan nan nan nan 2 11 20 20 27 31 31 31 31 35 35 26
nan nan 0 1 1 2 4 5 6 6 8 9 13 13 13 13 5 5 2 3 3 2 0 nan nan 0 1 14 17 17 14 13 14 14 14 9 6 6 5 4 4 6 6 5 5 4 3 2 2 2 1 nan nan nan nan nan nan nan nan nan nan nan nan nan nan nan nan nan nan nan nan nan 0 0 3 15 22 22 23 23 23 21 22 25 25 27
0 0 1 1 1 2 3 5 6 6 8 8 10 10 11 11 2 2 0 1 1 0 nan 0 0 0 1 12 20 20 19 15 13 13 11 7 5 5 6 4 4 7 6 5 5 4 3 2 2 1 0 nan nan nan nan nan nan nan nan nan nan nan nan nan nan nan nan nan nan nan nan 0 2 2 6 16 15 15 16 15 15 14 17 20 20 25
1 0 1 1 1 2 4 5 6 6 7 8 9 9 12 6 1 1 nan 0 0 1 nan nan nan nan 0 1 3 3 4 9 12 12 7 1 2 2 4 3 3 3 3 4 4 4 3 3 3 1 0 nan nan nan nan nan nan nan nan nan nan nan nan nan nan nan nan nan nan nan 0 1 2 2 5 5 3 3 3 2 2 6 11 16 16 23
2 1 0 1 1 2 4 4 6 6 9 12 13 13 12 2 0 0 nan nan nan nan nan nan nan nan nan nan 0 0 3 10 9 9 3 1 nan nan 0 1 1 0 1 2 2 3 3 2 2 1 1 nan nan nan nan nan nan nan nan nan nan nan nan nan nan nan nan nan 0 0 0 1 2 2 2 3 3 3 2 1 1 4 5 4 4 10
3 1 1 2 2 3 4 6 9 9 14 16 15 15 8 2 nan nan 0 nan nan nan nan nan nan nan nan nan nan nan 0 0 1 1 0 nan nan nan nan nan nan nan 0 1 1 1 1 1 1 1 2 0 nan nan nan nan nan nan nan nan nan nan nan nan nan nan nan nan 0 0 0 1 2 2 2 2 1 1 1 1 1 1 3 2 2 1
3 2 1 2 2 3 5 8 15 15 18 18 9 9 5 4 1 1 nan nan nan nan nan 1 1 4 3 2 1 1 0 nan nan nan nan nan nan nan nan nan nan nan nan nan nan 0 0 0 0 0 0 0 1 1 0 nan nan nan 0 nan nan nan nan nan nan nan nan nan 0 0 1 4 4 4 2 2 1 1 1 1 1 1 2 1 1 1
6 4 3 3 3 4 5 10 17 17 19 18 9 9 4 3 3 3 4 14 14 7 1 4 4 6 5 8 10 10 5 nan nan nan nan nan nan nan nan nan nan nan 0 0 0 nan 0 1 1 1 0 0 0 0 nan nan nan nan nan nan nan nan nan nan nan nan nan nan 0 0 4 3 2 2 3 2 0 0 1 0 0 3 4 1 1 1
6 5 5 5 5 5 12 17 19 19 18 17 10 10 1 0 1 1 15 16 16 9 1 2 2 5 6 8 6 6 7 3 nan nan nan nan nan nan nan 2 2 3 2 1 1 0 0 1 1 1 0 0 0 0 nan nan nan nan nan nan nan nan nan nan nan nan nan 0 0 0 1 3 3 3 2 2 0 0 nan 1 1 5 4 0 0 nan
13 9 8 8 8 10 17 19 20 20 21 19 8 8 0 nan 4 4 20 16 16 14 9 6 6 5 6 6 6 6 5 5 3 3 1 2 7 7 6 7 7 7 8 5 5 4 2 2 2 1 0 1 0 0 nan nan nan nan nan nan nan nan nan nan nan nan nan 0 1 1 1 3 2 2 1 0 nan nan nan nan nan nan 0 0 0 0
16 11 10 13 13 15 17 18 22 22 24 12 1 1 nan nan 5 5 23 22 22 19 12 5 5 3 4 4 3 3 2 2 5 5 5 4 8 8 9 9 9 7 7 6 6 4 3 2 2 1 1 1 0 0 nan nan nan nan nan nan nan nan nan nan nan nan 0 0 1 1 2 3 1 1 nan nan nan nan nan nan nan nan nan 0 0 1
16 13 13 14 14 19 24 27 18 18 15 8 0 0 nan nan 0 0 20 21 21 15 8 4 4 4 5 4 2 2 1 1 2 2 1 2 5 5 8 9 9 5 3 3 3 3 3 1 1 1 1 0 nan nan nan nan nan nan nan nan nan nan nan nan nan nan 1 1 1 1 2 2 1 1 0 nan nan nan nan nan nan nan nan 0 0 0
12 13 12 15 15 16 21 27 19 19 15 5 0 0 nan nan 2 2 16 16 16 13 9 6 6 6 7 5 3 3 2 2 2 2 1 1 2 2 2 2 2 4 1 1 1 1 1 4 4 3 1 0 nan nan nan nan nan nan nan nan nan nan nan nan nan 0 1 2 1 1 2 1 0 0 0 nan nan nan nan nan nan nan nan 0 0 0
13 14 14 14 14 18 25 26 17 17 15 9 0 0 nan nan 11 11 15 11 11 11 6 4 4 5 5 5 4 4 5 5 3 3 2 1 2 2 1 0 0 0 1 1 1 2 1 4 4 2 0 nan nan nan nan nan nan nan nan nan nan nan nan nan nan 0 2 2 2 2 2 1 0 0 nan nan nan nan nan nan nan nan nan 0 0 1
11 16 20 24 24 27 27 23 14 14 12 8 1 1 nan nan 3 3 7 6 6 8 5 4 4 2 2 3 4 4 6 6 3 3 2 2 1 1 1 0 0 0 0 1 1 0 1 3 3 1 nan nan nan nan nan nan nan nan nan nan nan nan nan 0 0 1 1 1 2 2 1 0 0 0 0 0 nan nan nan nan nan nan nan 4 4 14
13 17 24 27 27 30 27 8 9 9 11 8 3 3 nan nan nan nan nan 4 4 7 4 2 2 1 1 2 4 4 5 5 3 3 3 2 2 2 1 0 0 0 nan nan nan nan nan 1 1 2 nan nan nan nan 0 nan nan nan nan nan nan nan 0 0 0 0 0 0 0 0 0 0 0 0 0 0 0 0 nan nan nan nan nan 16 16 29
19 22 26 27 27 24 19 7 4 4 7 6 5 5 1 nan nan nan 0 5 5 8 4 2 2 1 2 2 5 5 6 5 4 4 3 3 3 3 2 1 1 1 0 nan nan nan nan nan nan nan nan 0 1 1 nan nan nan nan nan nan nan 0 0 0 0 0 1 0 0 0 nan 0 0 0 0 1 0 0 0 nan nan nan 0 24 24 36
CIN
nan nan nan nan nan nan nan nan nan nan nan nan nan nan nan nan nan nan nan nan nan nan nan nan nan nan nan nan nan nan nan -0 -0 -0 -0 -0 -0 -0 -0 -0 -0 -0 -0 -0 -0 -0 -0 -0 -0 -0 -0 -0 -0 -0 -0 -0 -0 -0 -0 -0 -0 -0 -0 -0 -0 -0 -0 -0 -0 -0 -0 -0 -0 -0 -0 -0 -0 -0 -0 -0 -0 -0 -0 -0 -0 -0
nan nan nan nan nan nan nan nan nan nan nan nan nan nan nan nan nan nan nan nan nan nan nan nan nan nan nan nan nan nan nan -0 -0 -0 -0 -0 -0 -0 -0 -0 -0 -0 -0 -0 -0 -0 -0 -0 -0 -0 -0 -0 -0 -0 -0 -0 -0 -0 -0 -0 -0 -0 -0 -0 -0 -0 -0 -0 -0 -0 -0 -0 -0 -0 -0 -0 -0 -0 -0 -0 -0 -0 -0 -0 -0 -0
nan nan nan nan nan nan nan nan nan nan nan nan nan nan nan nan nan nan nan nan nan nan nan nan nan nan nan nan -0 -0 -0 -0 -0 -0 -0 -0 -0 -0 -0 -0 -0 -0 -0 -0 -0 -0 -0 -0 -0 -0 -0 -0 -0 -0 -0 -0 -0 -0 -0 -0 -0 -0 -0 -0 -0 -0 -0 -0 -0 -0 -0 -0 -0 -0 -0 -0 -0 -0 -0 -0 -0 -0 -0 -0 -0 -0
nan nan nan nan nan nan nan nan nan nan nan nan nan nan nan nan nan nan nan nan nan nan nan nan nan nan nan nan -0 -0 -0 -0 -0 -0 -0 -0 -0 -0 -0 -0 -0 -0 -0 -0 -0 -0 -0 -0 -0 -0 -0 -0 -0 -0 -0 -0 -0 -0 -0 -0 -0 -0 -0 -0 -0 -0 -0 -0 -0 -0 -0 -0 -0 -0 -0 -0 -0 -0 -0 -0 -0 -0 -0 -0 -0 -0
nan nan nan nan nan nan nan nan nan nan nan nan nan nan nan nan nan nan nan nan nan nan nan nan nan nan nan nan nan nan -0 -0 -0 -0 -0 nan nan nan nan -0 -0 -0 -0 -0 -0 -0 -0 -0 -0 -0 -0 -0 -0 -0 -0 -0 -0 -0 -0 -0 -0 -0 -0 -0 -0 -0 -0 -0 -0 -0 -0 -0 -0 -0 -0 -0 -0 -0 -0 -0 -0 -0 -0 -0 -0 -0
nan nan nan nan nan nan nan nan nan nan nan nan nan nan nan nan nan nan -0 -0 -0 -0 nan nan nan nan nan nan -0 -0 -0 -0 -0 -0 nan nan nan nan nan -4 -4 -0 -0 -0 -0 -0 -0 -0 -0 -0 -0 -0 -0 -0 -0 -0 -0 -0 -0 -0 -0 -0 -0 -0 -0 -0 -0 -0 -0 -0 -0 -0 -0 -0 -0 -0 -0 -0 -0 -0 -0 -0 -0 -0 -0 -0
nan nan nan nan nan nan nan nan nan nan nan nan nan nan nan -0 -0 -0 -0 -0 -0 -0 -0 -0 -0 -0 nan -0 -0 -0 -0 -0 -0 -0 nan nan nan nan nan nan nan -0 -0 -0 -0 -0 -0 -0 -0 -0 -0 -0 -0 -0 -0 -0 -0 -0 -0 -0 -0 -0 -0 -0 -0 -0 -0 -0 -0 -0 -0 -0 -0 -0 -0 -0 -0 -0 -0 -0 -0 -0 -0 -0 -0 -0
nan nan nan nan nan nan nan nan nan nan nan nan -0 -0 -0 -0 -0 -0 -0 -0 -0 -0 -0 -0 -0 -0 -0 -0 nan nan nan nan nan nan nan nan nan nan -0 -0 -0 -0 -0 -0 -0 -0 -0 -0 -0 -0 -0 -0 -0 -0 -0 -0 -0 -0 -0 -0 -0 -0 -0 -0 -0 -0 -0 -0 -0 -0 -0 -0 -0 -0 -0 -0 -0 -0 -0 -0 -0 -0 -0 -0 -0 -0
nan nan nan nan nan nan nan nan nan nan -0 -0 -0 -0 -0 -0 -0 -0 -0 -0 -0 -0 -0 -0 -0 -0 -0 -0 -0 -0 -0 -0 nan nan nan nan nan nan nan -0 -0 -0 -0 -0 -0 -0 -0 -0 -0 -0 -0 -0 -0 -0 -0 -0 -0 -0 -0 -0 -0 -0 -0 -0 -0 -0 -0 -0 -0 -0 -0 -0 -0 -0 -0 -0 -0 -0 -0 -0 -0 -0 -0 -0 -0 -0
nan nan nan nan nan nan nan nan nan nan -0 -0 -0 -0 -0 -0 -0 -0 -0 -0 -0 -0 -0 -0 -0 -0 -0 -0 -0 -0 -0 -0 -0 -0 -0 -0 -0 -0 -0 -0 -0 -0 -0 -0 -0 -0 -0 -0 -0 nan -0 -0 -0 -0 -0 -0 -0 -0 -0 -0 -0 -0 -0 -0 -0 -0 -0 -0 -0 -0 -0 -0 -0 -0 -0 -0 -0 -0 -0 -0 -0 -0 -0 -0 -0 -0
nan nan nan nan nan nan -0 -0 -0 -0 -0 -0 -0 -0 -0 -0 -0 -0 -0 -0 -0 -0 -0 -0 -0 -0 -0 -0 -0 -0 -0 -0 -0 -0 -0 -0 -0 -0 -0 -0 -0 nan -0 -0 -0 nan nan nan nan nan nan -0 -0 -0 -0 -0 -0 -0 -0 -0 -0 -0 -0 -0 -0 -0 -0 -0 -0 -0 -0 -0 -0 -0 -0 -0 -0 -0 -0 -0 -0 -0 -0 -0 -0 -0
nan nan nan -0 -0 -0 -0 -0 -0 -0 -0 -0 -0 -0 -0 -0 -0 -0 -0 -0 -0 -0 -0 -0 -0 -0 -0 -0 -0 -0 -0 -0 -0 -0 -0 -0 -0 -0 -0 nan nan nan nan nan nan nan nan nan nan nan nan -0 -0 -0 -0 -0 -0 -0 -0 -0 -0 -0 -0 -0 -0 -0 -0 -0 -0 -0 -0 -0 -0 -0 -0 -0 -0 -0 -0 -0 -0 -0 -0 -0 -0 -0
-0 -0 -0 -0 -0 -0 -0 -0 -0 -0 -0 -0 -0 -0 -0 -0 -0 -0 -0 -0 -0 -0 -0 -0 -0 -0 -0 -0 -0 -0 -0 -0 -0 -0 -0 -0 -0 -0 nan nan nan nan nan nan nan nan nan nan nan nan nan nan -0 -0 -0 -0 -0 -0 -0 -0 -0 -0 -0 -0 -0 -0 -0 -0 -0 -0 -0 -0 -0 -0 -0 -0 -0 -0 -0 -0 -0 -0 -0 -0 -0 -0
-0 -0 -0 -0 -0 -0 -0 -0 -0 -0 -0 -0 -0 -0 -0 -0 -0 -0 -0 -0 -0 -0 -0 -0 -0 -0 -0 -0 -0 -0 -0 -0 -0 -0 -0 -0 -0 -0 -0 -0 -0 nan nan nan nan nan nan nan nan nan nan nan -0 -0 -0 -0 -0 -0 -0 -0 -0 -0 -0 -0 -0 -0 -0 -0 -0 -0 -0 -0 -0 -0 -0 -0 -0 -0 -0 -0 -0 -0 -0 -0 -0 -0
-0 -0 -0 -0 -0 -0 -0 -0 -0 -0 -0 -0 -0 -0 -0 -0 -0 -0 -0 -0 -0 -0 -0 -0 -0 -0 -0 -0 -0 -0 -0 -0 -0 -0 -0 -0 -0 -0 -0 -0 -0 -0 nan nan nan nan nan nan nan nan nan nan nan nan -0 -0 -0 -0 -0 -0 -0 -0 -0 -0 -0 -0 -0 -0 -0 -0 -0 -0 -0 -0 -0 -0 -0 -0 -0 -0 -0 -0 -0 -0 -0 -0
-0 -0 -0 -0 -0 -0 -0 -0 -0 -0 -0 -0 -0 -0 -0 -0 -0 -0 -0 -0 -0 -0 -0 -0 -0 -0 -0 -0 -0 -0 -0 -0 -0 -0 -0 -0 -0 -0 -0 -0 -0 -0 nan nan nan nan nan nan nan nan nan nan nan nan -0 -0 -0 -0 -0 -0 -0 -0 -0 -0 -0 -0 -0 -0 -0 -0 -0 -0 -0 -0 -0 -0 -0 -0 -0 -0 -0 -0 -0 -0 -0 -0
-0 -0 -0 -0 -0 -0 -0 -0 -0 -0 -0 -0 -0 -0 -0 -0 -0 -0 -0 -0 -0 -0 -0 -0 -0 -0 -0 -0 -0 -0 -0 -0 -0 -0 -0 -0 -0 -0 -0 -0 -0 -0 nan nan nan nan nan nan nan nan nan nan nan nan -0 -0 -0 -0 -0 -0 -0 -0 -0 -0 -0 -0 -0 -0 -0 -0 -0 -0 -0 -0 -0 -0 -0 -0 -0 -0 -0 -0 -0 -0 -0 -0
-0 -0 -0 -0 -0 -0 -0 -0 -0 -0 -0 -0 -0 -0 -0 -0 -0 -0 -0 -0 -0 -0 -0 -0 -0 -0 -0 -0 -0 -0 -3 -0 -0 -0 -0 -0 -0 -0 -0 -0 -0 nan nan nan nan nan nan nan nan nan nan nan -0 -0 -0 -0 -0 -0 -0 -0 -0 -0 -0 -0 -0 -0 -0 -0 -0 -0 -0 -0 -0 -0 -0 -0 -0 -0 -0 -0 -0 -0 -0 -0 -0 -0
-0 -0 -0 -1 -1 -0 -0 -0 -0 -0 -0 -0 -0 -0 -0 -0 -0 -0 -0 -0 -0 -0 -0 -0 -0 -0 -0 -0 -2 -2 nan nan -0 -0 -0 -0 -0 -0 -0 -0 -0 -0 nan nan nan nan nan nan nan nan nan -0 -0 -0 -0 -0 -0 -0 -0 -0 -0 -0 -0 -0 -0 -0 -0 -0 -0 -0 -0 -0 -0 -0 -0 -0 -0 -0 -0 -0 -0 -0 -0 -0 -0 -0
-0 -0 -0 -0 -0 -0 -0 -0 -0 -0 -0 -0 -0 -0 -0 -0 -0 -0 -0 -0 -0 -0 -0 -0 -0 -0 -0 -2 -2 -2 -0 nan -0 -0 -0 -0 -0 -0 -0 -0 -0 -0 nan nan nan nan nan nan nan nan nan -0 -0 -0 -0 -0 -0 -0 -0 -0 -0 -0 -0 -0 -0 -0 -0 -0 -0 -0 -0 -0 -0 -0 -0 -0 -0 -0 -0 -0 -0 -0 -0 -0 -0 -0
-0 -0 -0 -0 -0 -0 -0 -0 -0 -0 -0 -0 -0 -0 -0 -0 -0 -0 -0 -0 -0 -0 -0 -0 -0 -0 -1 -1 -0 -0 -0 -0 -0 -0 -0 -0 -0 -0 -0 -0 -0 nan nan nan nan nan nan nan nan nan nan -0 -0 -0 -0 -0 -0 -0 -0 -0 -0 -0 -0 -0 -0 -0 -0 -0 -0 -0 -0 -0 -0 -0 -0 -0 -0 -0 -0 -0 -0 -0 -0 -0 -0 -0
-0 -0 -0 -0 -0 -0 -0 -0 -0 -0 -0 -0 -1 -1 -0 -0 -0 -0 -2 -1 -1 -0 -0 -0 -0 -0 -0 -0 -0 -0 -0 -0 -0 -0 nan -0 -0 -0 -0 -0 -0 nan nan nan nan nan nan nan nan nan nan -0 -0 -0 -0 -0 -0 -0 -0 -0 -0 -0 -0 -0 -0 -0 -0 -0 -0 -0 -0 -0 -0 -0 -0 -0 -0 -0 -0 -0 -0 -0 -0 -0 -0 -0
-0 -0 -0 -0 -0 -0 -0 -0 -0 -0 -0 -1 -0 -0 -1 -0 -0 -0 -0 -0 -0 -0 -0 -0 -0 -0 -0 -0 -0 -0 -0 -0 nan nan nan -0 -0 -0 -0 nan nan nan nan nan nan nan nan nan nan nan nan -0 -0 -0 -0 -0 -0 -0 -0 -0 -0 -0 -0 -0 -0 -0 -0 -0 -0 -0 -0 -0 -0 -0 -0 -0 -0 -0 -0 -0 -0 -0 -0 -0 -0 -0
-0 -0 -0 -0 -0 -0 -0 -0 -1 -1 -2 -1 -1 -1 -1 -0 -0 -0 -0 -0 -0 -0 -1 -1 -1 -1 -0 -0 -0 -0 -0 nan nan nan nan -0 -0 -0 nan nan nan nan nan nan nan nan nan nan nan nan nan -0 -0 -0 -0 -0 -0 -0 -0 -0 -0 -0 -0 -0 -0 -0 -0 -0 -0 -0 -0 -0 -0 -0 -0 -0 -0 -0 -0 -0 -0 -0 -0 -0 -0 -0
-0 -0 -0 -0 -0 -1 -0 -6 -2 -2 -1 -2 -6 -6 -2 -0 -0 -0 -1 -1 -1 -0 -0 -0 -0 -0 -0 -0 -0 -0 -0 nan nan nan -0 -0 nan nan nan nan nan nan nan nan nan nan nan nan nan nan nan -0 -0 -0 -0 -0 -0 -0 -0 -0 -0 -0 -0 -0 -0 -0 -0 -0 -0 -0 -0 -0 -0 -0 -0 -0 -0 -0 -0 -0 -0 -0 -0 -0 -0 -0
-0 -0 -0 -0 -0 -0 -0 -0 -0 -0 -1 -5 -4 -4 -2 -2 -1 -1 -3 -5 -5 -2 -0 -0 -0 -0 -0 -0 -0 -0 -0 nan nan nan nan -0 nan nan nan nan nan nan nan nan nan nan nan nan nan nan nan nan -0 -0 -0 -0 -0 -0 -0 -0 -0 -0 -0 -0 -0 -0 -0 -0 -0 -0 -0 -0 -0 -0 -0 -0 -0 -0 -0 -0 -0 -0 -0 -0 -0 -0
-0 -0 -0 -0 -0 -0 -0 -0 -0 -0 -0 -0 -1 -1 -1 -4 -3 -3 -0 -0 -0 -0 -0 -0 -0 -0 -0 -0 -0 -0 -0 nan nan nan nan nan nan nan nan nan nan nan nan nan nan nan nan nan nan nan nan nan nan nan -0 -0 -0 -0 -0 -0 -0 -0 -0 -0 -0 -0 -0 -0 -0 -0 -0 -0 -0 -0 -0 -0 -0 -0 -0 -0 -0 -0 -0 -0 -0 -0
-0 -0 -0 -0 -0 -0 -0 -0 -0 -0 -0 -0 -0 -0 -0 -0 -3 -3 -1 -0 -0 -0 -0 -0 -0 -0 -0 -0 -0 -0 nan nan nan nan nan nan nan nan nan nan nan nan nan nan nan nan nan nan nan nan nan nan nan nan nan -0 -0 -0 -0 -0 -0 -0 -0 -0 -0 -0 -0 -0 -0 -0 -0 -0 -0 -0 -0 -0 -0 -0 -0 -0 -0 -0 -0 -0 -0 -0
-0 -0 -0 -0 -0 -0 -0 -0 -0 -0 -0 -0 -0 -0 -0 -0 -0 -0 -0 -0 -0 -0 -0 -0 -0 -0 -0 -0 -0 -0 -0 -0 nan nan nan nan nan nan nan -0 -0 -0 -0 nan nan nan nan nan nan nan nan nan nan nan nan -0 -0 nan -0 -0 -0 -0 -0 nan nan nan -0 -0 -0 -0 -0 -0 -0 -0 -0 -0 -0 -0 -0 -0 -0 -0 -0 -0 -0 -0
-0 -0 -0 -0 -0 -0 -0 -0 -0 -0 -0 -0 -0 -0 -0 -0 -0 -0 -0 -0 -0 -0 -0 -0 -0 -0 -0 -0 -0 -0 -0 -0 nan nan nan nan -0 -0 -0 -0 -0 -0 -0 -0 -0 nan nan nan nan nan nan nan nan nan nan nan nan nan nan nan nan nan nan nan nan nan nan -0 -0 -0 -0 -0 -0 -0 -0 -0 -0 -0 -0 -0 -0 -0 -0 -0 -0 -0
-0 -0 -0 -0 -0 -0 -0 -0 -0 -0 -0 -0 -0 -0 -0 -0 -0 -0 -0 -0 -0 -0 -0 -0 -0 -0 -0 -0 -0 -0 -0 -0 nan nan nan -0 -0 -0 -0 -0 -0 -0 -0 -0 -0 -0 nan nan nan nan nan nan nan nan nan nan nan nan nan nan nan nan nan nan nan nan nan nan nan nan -0 -0 -0 -0 -0 -0 -0 -0 -0 -0 -0 -0 -0 -0 -0 -0
-0 -0 -0 -0 -0 -0 -0 -0 -0 -0 -0 -0 -0 -0 -0 -0 -0 -0 -0 -0 -0 -0 -0 -0 -0 -0 -0 -0 -0 -0 -0 -0 -0 -0 -0 -0 -0 -0 -0 -0 -0 -0 -0 -0 -0 -0 -0 -0 -0 nan nan nan nan nan nan nan nan nan nan nan nan nan nan nan nan nan nan nan nan nan nan -0 -0 -0 -0 -0 -0 -0 -0 -0 -0 -0 -0 -0 -0 -0
-0 -0 -0 -0 -0 -0 -0 -0 -0 -0 -0 -0 -0 -0 -0 -0 -0 -0 -0 -0 -0 -0 -0 -0 -0 -0 -0 -0 -0 -0 -0 -0 -0 -0 -0 -0 -0 -0 -0 -0 -0 -0 -0 -0 -0 -0 -0 -0 -0 nan nan nan nan nan nan nan nan nan nan nan nan nan nan nan nan nan nan nan nan nan nan nan -0 -0 -0 -0 -0 -0 -0 -0 -0 -0 -0 -0 -0 -0
-0 -0 -0 -0 -0 -0 -0 -0 -0 -0 -0 -0 -0 -0 -0 -0 -0 -0 -0 -0 -0 -0 -0 -0 -0 -0 -0 -0 -0 -0 -0 -0 -0 -0 -0 -0 -0 -0 -0 -0 -0 -0 -0 -0 -0 -0 -0 -0 -0 -0 nan nan nan nan nan nan nan nan nan nan nan nan nan nan nan nan nan nan nan nan nan nan -0 -0 -0 -0 -0 -0 -0 -0 -0 -0 -0 -0 -0 -0
-0 -0 -0 -0 -0 -0 -0 -0 -0 -0 -0 -0 -0 -0 -0 -0 -0 -0 -0 -0 -0 -0 -0 -0 -0 -0 -0 -0 -0 -0 -0 -0 -0 -0 -0 -0 -0 -0 -0 -0 -0 -0 -0 -0 -0 -0 -0 -0 -0 -0 nan nan nan nan nan nan nan nan nan nan nan nan nan nan nan nan nan nan nan nan nan nan nan nan -0 -0 -0 -0 -0 -0 -0 -0 -0 -0 -0 -0
nan nan -0 -0 -0 -0 -0 -0 -0 -0 -0 -0 -0 -0 -0 -0 -0 -0 -0 -0 -0 -0 -0 nan nan -0 -0 -0 -0 -0 -0 -0 -0 -0 -0 -0 -0 -0 -0 -0 -0 -0 -0 -0 -0 -0 -0 -0 -0 -0 -0 nan nan nan nan nan nan nan nan nan nan nan nan nan nan nan nan nan nan nan nan nan -0 -0 -0 -0 -0 -0 -0 -0 -0 -0 -0 -0 -0 -0
-0 -0 -0 -0 -0 -0 -0 -0 -0 -0 -0 -0 -0 -0 -0 -0 -0 -0 -0 -0 -0 -0 nan -0 -0 -0 -0 -0 -0 -0 -0 -0 -0 -0 -0 -0 -0 -0 -0 -0 -0 -0 -0 -0 -0 -0 -0 -0 -0 -0 -0 nan nan nan nan nan nan nan nan nan nan nan nan nan nan nan nan nan nan nan nan -0 -0 -0 -0 -0 -0 -0 -0 -0 -0 -0 -0 -0 -0 -0
-0 -0 -0 -0 -0 -0 -0 -0 -0 -0 -0 -0 -0 -0 -0 -0 -0 -0 nan -0 -0 -0 nan nan nan nan -0 -0 -0 -0 -0 -0 -0 -0 -0 -0 -0 -0 -0 -0 -0 -0 -0 -0 -0 -0 -0 -0 -0 -0 -0 nan nan nan nan nan nan nan nan nan nan nan nan nan nan nan nan nan nan nan -0 -0 -0 -0 -0 -0 -0 -0 -0 -0 -0 -0 -0 -0 -0 -0
-0 -0 -0 -0 -0 -0 -0 -0 -0 -0 -0 -0 -0 -0 -0 -0 -0 -0 nan nan nan nan nan nan nan nan nan nan -0 -0 -0 -0 -0 -0 -0 -0 nan nan -0 -0 -0 -0 -0 -0 -0 -0 -0 -0 -0 -0 -0 nan nan nan nan nan nan nan nan nan nan nan nan nan nan nan nan nan -0 -0 -0 -0 -0 -0 -0 -0 -0 -0 -0 -0 -0 -0 -0 -0 -0 -0
-0 -0 -0 -0 -0 -0 -0 -0 -0 -0 -0 -0 -0 -0 -0 -0 nan nan -0 nan nan nan nan nan nan nan nan nan nan nan -0 -1 -0 -0 -0 nan nan nan nan nan nan nan -0 -0 -0 -0 -0 -0 -0 -0 -0 -0 nan nan nan nan nan nan nan nan nan nan nan nan nan nan nan nan -0 -0 -0 -0 -0 -0 -0 -0 -0 -0 -0 -0 -0 -0 -0 -0 -0 -0
-0 -0 -0 -0 -0 -0 -0 -0 -0 -0 -0 -0 -0 -0 -0 -0 -0 -0 nan nan nan nan nan -3 -3 -0 -0 -0 -0 -0 -0 nan nan nan nan nan nan nan nan nan nan nan nan nan nan -0 -0 -0 -0 -0 -0 -0 -0 -0 -0 nan nan nan -0 nan nan nan nan nan nan nan nan nan -0 -0 -0 -0 -0 -0 -0 -0 -0 -0 -0 -0 -0 -0 -0 -0 -0 -0
-0 -0 -0 -0 -0 -0 -0 -0 -0 -0 -0 -0 -0 -0 -0 -0 -0 -0 -0 -0 -0 -0 -2 -0 -0 -0 -0 -0 -0 -0 -0 nan nan nan nan nan nan nan nan nan nan nan -0 -0 -0 nan -0 -0 -0 -0 -0 -0 -0 -0 nan nan nan nan nan nan nan nan nan nan nan nan nan nan -0 -0 -0 -0 -0 -0 -0 -0 -0 -0 -0 -0 -0 -0 -0 -0 -0 -0
-0 -0 -0 -0 -0 -0 -0 -0 -0 -0 -0 -0 -0 -0 -0 -0 -0 -0 -0 -0 -0 -0 -4 -1 -1 -0 -0 -0 -0 -0 -0 -0 nan nan nan nan nan nan nan -0 -0 -0 -0 -0 -0 -0 -0 -0 -0 -0 -0 -0 -0 -0 nan nan nan nan nan nan nan nan nan nan nan nan nan -0 -0 -0 -0 -0 -0 -0 -0 -0 -0 -0 nan -0 -0 -0 -0 -0 -0 nan
-0 -0 -0 -0 -0 -0 -0 -0 -0 -0 -0 -0 -0 -0 -0 nan -0 -0 -0 -0 -0 -0 -0 -0 -0 -0 -0 -0 -0 -0 -0 -0 -0 -0 -0 -0 -0 -0 -0 -0 -0 -0 -0 -0 -0 -0 -0 -0 -0 -0 -0 -0 -0 -0 nan nan nan nan nan nan nan nan nan nan nan nan nan -0 -0 -0 -0 -0 -0 -0 -0 -0 nan nan nan nan nan nan -0 -0 -0 -0
-0 -0 -0 -0 -0 -0 -0 -0 -0 -0 -0 -0 -0 -0 nan nan -0 -0 -0 -0 -0 -0 -0 -0 -0 -0 -0 -0 -0 -0 -0 -0 -0 -0 -0 -0 -0 -0 -0 -0 -0 -0 -0 -0 -0 -0 -0 -0 -0 -0 -0 -0 -0 -0 nan nan nan nan nan nan nan nan nan nan nan nan -0 -0 -0 -0 -0 -0 -0 -0 nan nan nan nan nan nan nan nan nan -0 -0 -0
-0 -0 -0 -0 -0 -0 -0 -0 -0 -0 -0 -0 -0 -0 nan nan -0 -0 -0 -0 -0 -0 -0 -0 -0 -0 -0 -0 -0 -0 -0 -0 -0 -0 -0 -0 -0 -0 -0 -0 -0 -0 -0 -0 -0 -0 -0 -0 -0 -0 -0 -0 nan nan nan nan nan nan nan nan nan nan nan nan nan nan -0 -0 -0 -0 -0 -0 -0 -0 -0 nan nan nan nan nan nan nan nan -0 -0 -0
-0 -0 -0 -0 -0 -0 -0 -0 -0 -0 -0 -0 -0 -0 nan nan -0 -0 -0 -0 -0 -0 -0 -0 -0 -0 -0 -0 -0 -0 -0 -0 -0 -0 -0 -0 -0 -0 -0 -0 -0 -0 -0 -0 -0 -0 -0 -0 -0 -0 -0 -0 nan nan nan nan nan nan nan nan nan nan nan nan nan -0 -0 -0 -0 -0 -0 -0 -0 -0 -0 nan nan nan nan nan nan nan nan -0 -0 -0
-0 -0 -0 -0 -0 -0 -0 -0 -0 -0 -0 -0 -0 -0 nan nan -0 -0 -0 -0 -0 -0 -0 -0 -0 -0 -0 -0 -0 -0 -0 -0 -0 -0 -0 -0 -0 -0 -0 -0 -0 -0 -0 -0 -0 -0 -0 -0 -0 -0 -0 nan nan nan nan nan nan nan nan nan nan nan nan nan nan -0 -0 -0 -0 -0 -0 -0 -0 -0 nan nan nan nan nan nan nan nan nan -0 -0 -0
-0 -0 -0 -0 -0 -0 -0 -0 -0 -0 -0 -0 -0 -0 nan nan -0 -0 -0 -0 -0 -0 -0 -0 -0 -0 -0 -0 -0 -0 -0 -0 -0 -0 -0 -0 -0 -0 -0 -0 -0 -0 -0 -0 -0 -0 -0 -0 -0 -0 nan nan nan nan nan nan nan nan nan nan nan nan nan -0 -0 -0 -0 -0 -0 -0 -0 -0 -0 -0 -0 -0 nan nan nan nan nan nan nan -0 -0 -0
-0 -0 -0 -0 -0 -0 -0 -0 -0 -0 -0 -0 -0 -0 nan nan nan nan nan -0 -0 -0 -0 -0 -0 -0 -0 -0 -0 -0 -0 -0 -0 -0 -0 -0 -0 -0 -0 -0 -0 -0 nan nan nan nan nan -0 -0 -0 nan nan nan nan -0 nan nan nan nan nan nan nan -0 -0 -0 -0 -0 -0 -0 -0 -0 -0 -0 -0 -0 -0 -0 -0 nan nan nan nan nan -1 -1 -0
-0 -0 -0 -0 -0 -0 -0 -0 -0 -0 -0 -0 -0 -0 -9 nan nan nan -3 -0 -0 -0 -0 -0 -0 -0 -0 -0 -0 -0 -0 -0 -0 -0 -0 -0 -0 -0 -0 -0 -0 -0 -0 nan nan nan nan nan nan nan nan -0 -0 -0 nan nan nan nan nan nan nan -0 -0 -0 -0 -0 -0 -0 -0 -0 nan -0 -0 -0 -0 -0 -0 -0 -0 nan nan nan -0 -0 -0 -1
Wind_Speed
4 4 5 5 5 5 6 8 8 7 7 6 7 7 7 7 8 9 10 10 10 10 9 9 10 10 11 12 13 13 14 14 15 15 15 16 16 16 16 16 16 16 17 17 17 17 18 18 18 19 19 20 20 21 21 22 22 22 21 21 21 21 21 21 21 21 21 22 22 23 23 23 24 24 24 24 24 24 24 24 24 25 25 26 25 25
4 4 4 5 6 6 5 7 8 7 7 7 7 7 7 8 8 8 8 9 9 9 9 9 10 11 11 12 12 13 14 14 15 15 15 15 16 16 16 16 16 16 17 17 17 17 18 18 19 19 19 20 20 21 21 21 21 21 21 21 21 21 21 21 21 21 21 21 22 22 23 23 23 24 24 24 24 24 24 24 24 25 26 26 25 25
5 5 5 5 5 5 5 6 7 7 8 8 8 8 10 10 9 8 7 8 8 9 9 9 9 10 11 11 12 13 14 14 15 15 15 16 16 16 16 16 16 16 16 17 17 17 18 18 19 19 19 20 21 21 21 21 20 20 20 20 20 20 21 21 21 21 21 21 22 22 22 23 23 23 24 24 24 24 24 24 25 25 25 25 25 25
5 5 5 4 5 5 6 6 6 6 6 7 9 10 11 10 9 8 7 8 8 8 9 10 10 10 10 10 11 12 14 14 15 15 16 16 16 16 16 16 16 16 16 17 17 17 18 18 19 19 20 20 21 21 21 20 20 20 20 20 20 20 21 21 21 21 21 21 21 22 22 22 23 23 23 23 23 24 24 24 24 25 25 25 25 25
5 5 5 4 4 5 6 6 6 6 6 7 8 9 9 8 8 7 7 8 8 9 8 9 10 10 9 9 10 12 14 15 15 16 16 16 16 16 16 16 16 16 16 16 17 17 18 18 19 20 20 21 21 21 20 20 20 20 20 20 20 20 21 21 21 21 21 21 21 22 22 22 22 23 23 23 23 23 23 24 24 24 25 25 25 25
5 5 4 4 4 4 5 5 5 6 6 6 7 8 8 7 7 7 7 7 8 8 8 8 8 9 9 9 11 12 14 15 16 16 16 16 16 16 16 16 16 16 16 16 17 17 18 19 19 20 21 21 21 20 20 19 19 19 20 20 20 20 21 21 21 21 21 21 21 22 22 22 22 23 23 23 23 23 23 23 24 24 24 25 25 25
5 5 4 4 4 4 5 5 5 6 6 6 6 6 7 7 7 7 8 7 7 7 7 7 8 9 9 10 11 12 13 14 14 15 15 15 15 15 15 15 15 15 15 16 17 17 18 19 20 21 21 21 20 20 19 19 19 20 20 20 20 20 20 21 21 21 21 21 21 22 22 22 22 23 23 23 23 23 23 23 23 24 24 25 25 25
6 5 5 5 5 5 5 5 6 6 6 6 6 6 6 6 6 7 8 8 7 7 7 7 7 8 8 9 10 11 10 11 11 11 12 12 13 13 13 14 14 14 15 16 17 18 19 20 21 21 21 21 20 19 19 19 19 20 20 20 20 20 20 20 20 21 21 21 21 22 22 22 22 22 23 23 23 23 23 23 23 24 24 25 25 25
6 6 6 6 6 6 6 6 6 6 6 6 6 6 7 7 7 7 7 7 7 7 7 7 7 7 7 8 8 9 9 9 9 9 9 9 10 10 11 12 13 14 15 16 17 18 20 20 21 21 20 20 19 19 19 19 19 20 20 20 20 20 20 20 20 21 21 21 21 22 22 22 22 22 23 23 23 23 23 23 23 24 24 24 25 25
7 7 6 6 6 6 6 6 6 6 7 7 6 6 7 8 8 7 7 7 7 6 6 7 7 8 7 7 7 8 9 9 10 11 11 11 11 11 11 11 12 13 15 16 17 18 19 20 20 20 19 19 19 19 19 19 19 19 19 20 20 20 20 20 20 21 21 21 21 22 22 22 22 22 23 23 23 23 23 23 23 23 23 24 24 24
6 6 6 6 5 5 6 6 6 6 7 7 7 6 6 6 7 7 8 7 7 6 6 7 7 8 8 7 7 7 8 8 9 10 11 11 12 12 12 11 11 12 14 15 16 17 18 18 18 18 18 18 18 18 18 18 19 19 19 19 20 20 20 20 20 21 21 21 22 22 22 22 22 23 22 23 23 23 23 23 23 23 23 23 23 24
5 5 5 5 5 5 5 6 6 6 6 6 6 6 6 5 6 6 8 8 8 7 7 7 7 7 8 8 7 7 7 7 7 7 7 8 8 8 8 8 9 10 11 12 13 15 16 16 17 16 16 17 17 17 17 17 18 19 19 19 20 20 20 20 21 21 21 21 22 22 22 23 23 23 23 23 23 22 22 22 22 22 22 23 23 24
5 4 4 5 5 5 5 6 5 5 5 5 6 6 6 5 5 6 7 8 8 8 8 7 7 7 7 7 7 7 7 7 7 7 6 6 6 6 5 6 6 7 7 8 9 10 13 14 14 15 15 15 15 16 17 17 18 18 19 20 20 20 20 20 21 21 21 22 22 22 22 22 23 23 23 23 23 23 22 22 22 22 22 23 23 24
5 5 5 6 6 6 6 6 6 6 6 6 6 6 6 6 6 7 7 7 7 7 7 8 7 7 6 7 7 7 8 7 7 6 6 5 5 5 5 5 6 6 6 7 7 8 10 11 11 11 13 13 14 15 15 16 17 19 19 20 20 20 20 20 21 21 21 21 22 22 22 22 22 23 23 23 23 23 22 22 22 22 22 23 23 24
6 6 6 7 7 6 6 6 7 7 7 6 6 6 7 7 6 6 6 7 7 7 7 8 8 7 5 6 7 8 8 7 6 6 6 5 5 5 5 6 6 6 6 7 7 8 10 9 9 9 10 11 12 13 15 16 18 19 19 20 20 20 20 21 21 21 21 21 22 22 22 22 22 22 23 23 23 22 22 22 22 22 23 23 23 23
6 6 7 7 7 7 6 6 7 7 7 7 6 6 7 7 6 6 6 7 7 7 7 8 8 7 5 5 6 7 7 7 6 5 6 5 5 4 5 6 6 6 6 7 8 8 8 8 8 8 9 11 13 15 16 17 18 19 20 20 20 20 20 21 21 21 21 22 22 22 22 22 23 23 23 23 22 22 22 22 22 23 23 23 23 23
6 6 6 6 7 7 7 7 7 7 7 7 6 6 6 6 6 6 6 6 6 6 5 6 6 6 5 5 5 5 5 4 4 4 5 5 5 4 5 6 6 7 7 8 8 8 7 7 7 8 8 11 13 16 17 18 19 19 20 20 20 20 20 21 21 21 21 22 22 22 22 22 23 23 23 23 23 23 23 23 23 23 23 23 23 23
6 6 6 6 7 7 7 7 7 7 7 6 6 6 5 5 6 6 6 6 6 6 6 5 5 5 5 5 3 2 3 3 3 3 4 5 5 5 5 6 6 7 8 8 8 7 7 7 7 8 9 13 15 16 18 18 19 19 19 20 20 20 20 21 21 21 22 22 22 22 22 22 23 23 23 23 23 23 23 23 23 23 23 23 23 23
5 5 5 6 6 6 7 7 7 7 6 6 6 6 6 6 6 6 7 7 7 7 7 6 6 5 5 5 3 1 1 0 2 3 4 5 6 5 5 6 6 7 8 7 7 7 7 7 8 10 12 14 16 17 18 18 18 19 19 19 20 20 20 21 21 21 22 22 22 22 22 22 22 22 22 23 23 23 23 23 23 23 23 23 23 23
6 6 6 6 7 8 8 7 7 7 7 7 7 7 7 7 7 7 7 7 7 7 7 7 7 6 5 5 3 1 1 1 2 3 4 6 6 6 5 6 7 7 7 7 7 7 7 7 8 10 12 14 15 16 17 18 18 18 19 19 19 20 20 21 21 21 22 22 22 22 22 22 22 22 22 22 22 23 23 23 23 23 23 23 23 23
7 7 7 7 7 7 7 7 7 8 9 9 9 8 7 7 7 7 7 7 7 7 6 6 6 6 4 5 3 1 1 1 2 3 4 5 5 5 5 5 6 7 7 6 6 7 7 7 8 8 10 13 15 16 17 17 17 18 18 19 19 20 20 21 21 21 21 22 22 22 22 22 22 22 22 22 22 22 22 22 22 23 23 23 23 23
7 8 8 9 8 8 8 8 9 10 11 11 9 8 7 7 7 7 6 6 6 6 6 6 6 6 5 5 5 3 2 2 3 3 3 4 5 5 4 5 5 6 7 7 7 7 7 7 8 8 11 13 15 16 17 17 17 17 18 19 19 20 20 21 21 21 21 21 22 22 22 22 22 22 22 22 22 22 22 22 22 22 23 23 23 23
9 9 9 9 9 9 9 9 9 10 10 9 8 7 6 7 7 7 6 6 6 6 6 6 6 5 5 5 5 5 3 2 2 2 3 4 5 5 4 4 5 5 6 6 7 7 7 7 8 8 11 14 15 15 16 16 16 17 18 19 19 20 20 21 21 21 21 21 21 21 21 22 22 22 22 22 22 22 22 22 22 22 22 23 23 23
9 9 9 9 9 8 8 8 8 7 6 5 6 6 6 6 6 6 6 6 6 6 6 6 6 5 5 6 6 5 3 2 2 2 2 3 4 4 4 4 5 6 6 6 6 7 7 8 8 8 9 12 14 14 15 15 15 16 18 19 19 20 20 21 21 21 21 21 21 21 21 21 21 21 21 21 21 21 21 22 22 22 22 23 23 24
9 9 9 9 10 10 10 8 7 6 5 5 4 4 5 6 7 7 6 6 6 6 6 6 6 6 6 6 5 3 2 2 2 2 2 3 4 4 4 4 5 6 6 6 6 7 8 8 8 8 8 10 11 13 14 14 15 17 18 19 19 20 20 20 20 21 21 21 21 21 21 21 21 21 21 21 21 21 21 21 22 22 23 23 24 24
12 13 13 14 15 15 15 14 13 12 10 8 6 5 5 6 7 7 7 7 6 6 6 7 7 7 6 5 4 2 2 2 2 2 2 3 3 4 4 4 4 5 6 6 6 7 8 8 8 8 8 8 9 11 13 14 16 17 18 19 19 19 19 20 20 20 20 21 21 21 21 22 21 21 21 21 21 21 21 21 22 22 23 23 23 23
17 18 19 18 17 16 15 15 15 15 15 13 11 9 8 7 7 7 8 8 7 7 7 7 8 8 7 6 4 2 1 2 2 2 2 2 3 4 4 4 4 5 6 6 6 7 8 8 8 8 7 7 8 9 12 14 16 17 18 18 19 19 19 19 19 20 20 21 21 21 21 21 21 21 21 21 21 21 21 22 22 22 22 21 20 18
14 14 14 14 13 13 13 13 14 15 15 15 14 13 10 7 7 8 8 7 7 7 7 7 8 7 6 6 4 2 0 1 1 1 2 2 3 3 4 4 4 5 6 6 6 7 8 8 8 7 7 7 7 8 11 14 15 16 17 17 18 18 18 18 19 19 20 21 21 21 21 21 21 21 21 21 21 21 21 22 22 22 20 17 14 12
9 10 10 11 12 12 13 14 14 15 15 15 14 12 9 7 6 7 7 7 7 7 7 7 7 7 6 5 3 2 1 1 1 1 1 2 3 3 4 4 4 5 5 5 5 6 6 6 6 6 7 7 8 8 9 11 13 13 14 16 16 17 17 17 18 19 20 21 21 21 21 21 21 21 21 21 21 21 21 22 21 19 16 13 11 10
7 8 9 10 11 12 12 12 13 13 14 14 12 10 7 6 5 6 6 6 6 6 7 7 7 6 5 4 3 2 1 1 2 1 1 2 3 3 4 4 5 5 5 4 4 4 5 5 5 6 6 8 8 8 8 9 9 10 10 12 13 14 15 17 18 19 20 20 20 20 20 20 20 21 21 21 21 21 21 22 20 16 11 10 10 10
8 8 8 9 9 10 10 10 10 10 11 10 9 7 6 5 5 5 6 6 6 6 6 6 6 4 3 3 2 2 1 2 2 1 2 2 3 3 4 5 5 5 4 4 4 4 5 5 5 5 6 7 8 8 8 8 8 8 8 9 9 11 14 16 17 18 18 19 19 19 20 20 20 20 20 21 21 21 21 21 19 16 11 10 10 10
8 8 7 8 8 8 8 7 7 7 7 7 6 5 4 4 5 5 5 5 5 5 5 5 4 3 3 2 2 2 2 1 2 2 3 2 3 3 4 4 5 5 4 4 4 4 5 5 5 5 6 7 7 8 8 8 8 8 8 8 8 9 12 14 15 15 15 16 17 18 19 19 19 20 20 20 21 21 21 21 20 16 12 10 10 10
8 7 7 7 7 7 7 6 6 6 6 5 4 4 4 4 4 5 5 5 4 4 4 3 3 2 2 2 2 2 2 2 2 3 4 3 3 3 4 4 5 5 5 4 5 5 5 5 5 6 7 7 7 7 8 8 8 8 8 8 8 9 11 11 12 12 12 13 14 15 16 17 18 18 19 20 20 20 21 21 21 19 15 11 10 10
8 7 7 6 6 6 6 6 6 6 6 5 5 4 4 4 4 4 5 4 3 3 3 2 2 2 2 2 2 2 2 2 3 4 4 3 3 3 4 4 5 5 5 5 5 5 5 6 6 6 6 7 7 7 7 8 8 8 8 8 8 8 9 9 9 10 10 10 11 11 12 13 14 16 17 18 18 19 20 21 22 21 19 14 12 11
7 7 6 6 6 6 6 6 6 6 6 5 5 5 4 4 4 4 4 3 3 2 2 2 2 2 3 3 3 3 3 3 4 4 4 4 3 3 4 4 5 5 5 5 5 5 5 7 8 8 7 7 7 7 6 7 7 7 7 8 8 8 8 9 9 9 10 10 9 9 9 10 11 12 13 15 17 19 21 22 22 22 21 19 16 13
6 6 6 6 6 6 6 6 6 6 6 5 5 5 4 4 4 4 4 3 2 2 1 1 1 2 2 3 3 3 4 4 4 5 5 4 4 4 4 4 5 5 5 6 6 6 6 7 8 9 9 8 7 6 6 6 7 7 8 8 8 8 8 9 9 9 9 9 9 9 9 9 10 11 12 15 18 20 21 21 21 21 21 20 19 16
6 6 6 6 6 6 6 6 6 5 5 5 5 5 5 5 5 4 3 3 2 2 2 1 1 2 2 3 3 4 4 4 4 5 5 4 4 4 4 4 5 5 5 6 6 6 7 7 8 8 8 8 7 6 6 7 7 8 8 8 8 8 8 8 8 9 9 9 9 10 10 10 10 11 12 15 17 18 18 19 19 19 20 20 19 19
6 6 6 6 6 6 6 6 5 5 5 5 5 5 5 5 4 4 3 2 2 2 2 2 2 2 3 3 4 4 4 4 4 4 4 4 4 4 4 4 5 6 6 6 6 7 7 7 8 8 7 7 7 8 8 8 8 8 8 8 8 8 8 8 8 8 8 9 10 10 11 10 10 10 11 12 12 12 13 13 14 15 17 17 17 18
6 6 6 6 6 6 6 6 5 5 5 5 5 5 5 4 3 3 2 2 2 2 2 2 2 2 3 4 4 5 4 4 3 3 3 3 3 3 4 4 5 6 6 6 6 7 7 7 7 7 7 7 8 8 8 8 8 8 9 9 8 8 8 8 8 8 9 9 10 10 10 10 10 10 10 10 10 10 10 10 11 12 13 12 13 14
6 6 6 6 6 6 6 6 6 5 5 5 5 5 4 3 2 1 1 2 2 2 2 2 3 3 3 4 4 4 4 2 2 2 2 2 2 3 4 4 5 6 6 6 6 7 7 7 8 8 8 8 8 8 7 7 8 8 9 8 7 7 8 8 8 8 8 8 9 9 10 10 10 10 10 10 10 10 10 10 10 10 11 10 9 10
6 6 6 6 6 6 5 5 5 5 5 5 4 4 4 3 2 1 2 2 2 2 2 2 3 3 3 3 4 4 3 2 1 1 1 1 2 2 3 4 4 5 6 6 7 7 7 8 8 9 8 8 9 9 9 8 9 9 10 8 8 8 9 9 9 8 8 8 9 9 10 10 11 11 10 10 10 9 9 9 10 10 10 9 8 8
6 6 5 5 5 5 5 5 5 5 5 4 4 3 3 3 2 2 2 2 1 1 1 2 3 3 4 3 3 2 1 1 1 1 1 1 2 2 3 4 4 5 6 7 7 8 8 8 8 8 8 8 8 8 8 8 9 9 9 9 9 10 10 9 8 7 8 8 9 9 10 10 10 10 10 10 10 10 10 10 11 11 10 9 8 7
5 5 5 5 5 5 5 5 5 4 4 4 3 3 3 3 3 3 2 1 0 1 1 2 3 3 4 3 3 2 1 1 1 1 1 2 2 3 4 4 5 5 6 6 7 8 8 8 8 8 7 8 8 8 9 9 9 8 8 9 9 8 6 7 7 8 8 9 9 9 9 9 9 9 10 10 10 9 9 10 11 11 10 8 8 7
5 5 5 5 5 5 5 4 4 4 4 4 3 3 2 3 3 4 3 1 1 1 1 2 3 4 4 4 4 4 3 3 2 2 2 2 2 3 4 6 6 7 7 7 7 7 8 7 7 7 7 7 7 8 8 8 8 8 8 8 8 8 7 7 8 9 9 9 9 8 9 9 9 9 9 9 9 9 8 8 8 8 8 8 7 7
5 5 5 5 5 5 5 4 4 4 4 3 3 2 2 3 3 3 2 2 1 1 2 3 3 4 4 4 4 4 4 4 3 3 3 4 5 5 6 6 7 7 7 7 7 7 7 7 7 7 6 6 7 7 8 8 8 8 8 9 9 8 8 8 8 8 8 9 9 9 10 10 10 9 9 9 8 8 8 8 8 8 8 7 7 7
5 5 5 5 5 5 5 5 4 3 3 2 2 2 2 2 3 3 3 2 2 2 3 3 3 4 4 4 4 4 4 5 4 4 4 4 5 5 6 6 7 7 7 7 7 7 7 7 7 7 6 6 7 7 7 8 8 8 8 9 9 8 8 8 8 8 8 8 9 10 11 11 10 9 8 9 9 8 8 8 7 7 7 7 7 7
6 6 6 5 5 5 5 4 4 3 2 2 1 1 1 2 2 2 2 2 2 3 3 3 4 4 5 5 5 5 5 5 5 5 5 5 6 6 6 7 7 8 7 7 7 7 7 7 7 7 6 6 6 6 7 7 7 8 8 8 9 9 8 8 8 8 8 8 9 10 11 10 9 9 8 9 8 8 8 7 7 7 7 7 7 7
6 6 6 6 6 5 5 4 3 3 2 2 1 1 1 2 2 2 2 2 2 3 3 4 4 5 5 5 5 5 6 6 6 6 6 6 6 6 7 7 7 7 7 8 8 8 7 7 7 7 7 6 6 6 6 7 7 7 8 8 8 8 9 8 8 8 8 9 10 11 11 9 8 8 8 8 8 8 8 8 7 7 6 6 6 7
7 7 7 6 6 6 5 4 3 3 2 2 1 0 0 1 2 2 2 2 2 3 3 4 5 5 5 5 5 5 6 6 6 6 6 6 6 7 7 8 7 7 7 7 7 7 6 6 7 7 7 6 6 6 6 7 7 7 7 7 8 8 8 8 8 8 8 9 10 11 10 8 7 7 7 8 8 8 8 8 7 7 6 6 6 6
7 7 7 7 6 6 5 4 3 3 3 2 1 1 0 1 1 2 2 2 2 3 3 4 5 5 5 5 5 6 6 6 6 6 6 6 6 7 7 8 8 8 7 6 6 6 5 4 4 5 6 6 5 5 6 7 7 7 7 7 7 7 8 8 8 8 9 9 10 10 10 9 7 7 6 7 8 8 8 8 7 7 6 6 6 6
7 7 7 7 6 5 4 3 3 3 3 2 1 1 1 1 1 1 2 2 2 3 4 4 4 4 5 5 5 6 6 6 6 6 6 6 6 7 7 8 8 8 7 7 6 6 5 4 3 2 3 5 5 5 5 6 7 7 7 7 7 7 7 8 8 8 9 9 9 9 9 8 8 7 6 6 7 8 8 8 8 7 7 6 6 6
Wind_Direction
257 264 267 265 266 269 272 275 277 279 278 278 278 280 280 277 276 274 274 273 274 274 275 275 275 276 275 275 276 278 280 283 286 288 290 291 292 292 292 293 294 295 296 298 299 300 300 301 303 305 307 310 312 313 312 312 311 310 309 309 309 309 308 308 309 309 309 308 308 307 306 306 306 306 306 307 308 308 308 308 307 305 303 301 300 299
264 261 258 249 250 258 270 275 276 277 277 278 280 282 284 284 283 281 279 277 275 274 275 275 276 276 277 278 278 279 280 282 284 286 288 289 290 290 291 291 292 294 295 296 297 298 299 300 302 305 308 310 312 312 311 310 310 309 309 308 308 308 308 308 308 308 308 308 307 306 306 305 306 306 307 307 308 308 308 307 306 304 303 303 303 304
279 278 274 263 259 262 270 276 277 277 278 280 282 283 284 285 284 283 281 279 276 275 274 275 276 278 278 279 280 280 280 281 283 285 286 287 288 289 289 290 291 292 294 295 296 297 298 300 303 306 309 310 311 311 310 309 309 308 308 307 307 307 308 308 308 308 307 307 306 305 305 305 305 306 306 307 307 307 307 306 306 305 305 306 307 307
276 278 278 276 273 271 274 279 281 281 279 280 281 281 281 281 280 280 279 278 278 277 276 276 277 278 279 279 279 279 280 281 282 284 285 286 286 287 287 288 289 290 292 293 294 296 297 300 303 306 309 310 310 310 309 308 308 307 306 306 307 307 307 308 308 307 307 306 305 305 304 304 305 305 306 306 306 306 306 306 306 307 307 307 307 307
274 275 278 281 279 278 278 282 283 282 277 276 277 277 277 277 277 277 277 276 276 276 277 276 276 277 277 277 278 279 280 281 282 283 284 284 284 285 285 286 287 288 290 291 293 295 298 301 304 306 308 309 309 309 308 307 307 306 306 306 306 307 307 308 307 307 306 305 304 303 303 303 304 305 305 305 306 306 306 306 307 307 307 307 306 306
276 277 281 281 281 282 284 282 280 278 276 274 274 275 276 276 275 275 274 273 273 273 274 275 276 276 277 277 278 280 280 281 281 282 281 281 281 282 282 283 284 286 288 290 293 295 298 301 304 306 307 307 307 307 307 306 306 306 306 306 307 307 308 308 307 306 305 304 303 302 302 303 304 304 305 305 306 306 306 306 306 306 306 306 305 304
277 278 280 279 279 280 282 280 279 278 278 279 278 278 277 277 276 274 273 271 270 270 272 274 276 276 277 277 277 278 279 279 280 279 279 278 278 278 279 280 282 284 288 291 294 297 299 302 304 305 306 306 306 306 305 305 305 305 305 306 307 308 308 307 306 305 303 302 302 302 303 303 304 305 305 306 306 306 307 307 306 306 305 305 304 304
278 280 282 284 285 284 282 280 280 280 280 281 283 283 283 281 280 280 280 278 275 271 270 271 272 273 274 276 278 279 280 281 281 280 279 277 277 277 279 280 283 286 291 294 296 298 300 301 302 303 304 304 304 304 303 303 303 304 305 306 307 307 307 306 304 303 302 302 302 303 303 304 305 305 306 306 307 307 307 306 306 305 305 305 305 305
278 283 284 282 283 284 284 281 279 280 280 280 282 284 287 288 288 288 287 286 284 280 278 277 277 276 275 278 280 282 283 284 284 284 283 283 282 282 283 286 288 291 293 295 296 298 299 300 301 301 302 302 301 301 301 302 303 304 305 306 307 306 305 304 303 303 302 303 303 304 304 305 305 306 307 307 307 307 306 305 305 304 304 305 305 306
272 276 278 276 276 279 284 285 284 283 281 280 281 283 287 290 290 289 286 285 285 286 286 289 289 288 286 281 280 281 284 284 283 281 280 279 279 281 283 285 288 290 292 293 294 296 297 298 299 299 299 299 299 299 300 301 302 304 305 306 306 305 304 304 303 303 303 303 304 305 305 306 306 307 307 307 306 306 305 304 304 304 304 305 306 307
270 272 276 279 280 279 279 282 285 286 284 281 279 277 275 276 278 280 283 284 287 289 291 293 294 295 294 290 286 285 286 286 283 281 277 275 275 276 277 279 281 284 287 290 292 293 295 296 297 296 296 296 296 297 298 300 302 304 305 305 305 304 304 303 303 304 304 305 305 306 306 307 307 307 307 307 306 305 304 303 303 304 305 306 307 307
272 275 277 279 280 281 280 282 283 283 280 276 274 272 270 270 273 280 289 295 299 301 300 298 295 293 292 292 291 290 287 285 284 282 279 275 273 272 273 275 277 281 285 288 291 293 294 295 294 294 293 293 294 296 299 301 303 304 305 305 305 304 304 304 304 304 305 306 306 307 307 307 308 308 307 306 306 305 304 304 304 305 306 307 307 306
271 274 276 280 281 282 280 279 277 274 270 272 280 287 293 297 299 300 301 302 304 305 303 297 292 288 285 285 286 287 284 281 279 278 276 274 274 274 276 279 282 286 288 290 292 293 294 294 292 291 290 292 294 297 300 302 304 305 305 305 304 304 304 304 304 305 306 307 307 308 308 308 308 308 308 307 306 306 306 306 306 307 307 307 306 306
271 273 274 275 275 276 277 280 284 288 290 293 297 302 304 306 308 307 303 300 299 297 294 290 288 286 283 281 279 278 277 275 273 271 270 271 274 278 282 283 285 288 291 291 291 291 293 292 291 290 290 292 295 298 302 304 305 305 305 305 304 304 304 304 305 306 307 307 308 308 309 309 309 308 308 307 307 307 306 307 307 307 307 306 305 305
276 279 281 280 282 286 293 298 301 301 300 300 299 298 298 300 303 303 299 295 294 292 290 287 287 285 282 280 277 274 271 268 268 268 270 270 273 277 282 283 285 286 288 289 289 289 290 290 289 290 292 295 299 302 305 305 305 305 305 304 304 304 304 305 306 307 308 309 309 309 309 309 308 308 307 307 307 306 306 306 306 306 305 305 304 304
282 283 283 288 290 293 296 297 296 294 293 292 293 295 299 301 301 298 291 290 292 293 293 293 291 288 280 274 273 274 275 274 272 272 275 276 278 281 285 287 287 287 286 286 287 288 289 289 290 292 294 297 301 302 303 303 303 303 303 303 303 304 305 306 308 309 310 310 310 310 309 309 309 308 308 307 307 306 306 306 305 305 305 304 304 304
274 274 276 279 284 287 291 291 289 289 290 292 296 299 300 297 293 289 285 286 288 289 286 286 288 290 288 281 281 289 305 302 295 287 282 282 284 286 286 285 285 285 285 284 285 288 290 291 292 293 294 298 300 301 301 301 301 301 301 302 303 305 307 309 310 310 310 310 310 310 310 309 309 308 308 307 307 306 306 306 305 305 305 305 304 305
267 271 277 281 284 287 289 287 286 287 291 296 299 298 291 283 279 278 277 276 275 273 271 270 270 274 281 285 298 345 11 329 308 295 285 282 282 281 279 278 278 279 281 281 284 287 290 291 292 293 293 296 297 298 298 298 299 300 301 303 305 307 309 310 311 311 310 310 310 310 310 309 309 308 307 307 307 306 306 305 305 305 305 304 304 304
275 276 280 281 280 280 280 282 288 294 300 301 298 291 283 277 274 273 271 269 267 266 267 266 264 262 266 270 282 359 77 300 281 279 277 277 277 277 276 275 275 276 278 280 283 287 288 288 289 290 291 293 294 295 296 297 298 299 301 304 307 309 311 311 311 311 311 310 310 310 310 309 308 308 307 307 306 306 306 305 305 305 305 304 304 304
282 279 276 278 281 283 286 292 298 303 303 298 292 285 280 278 277 276 275 273 270 268 267 268 267 267 266 267 267 228 131 192 256 269 273 277 279 280 278 275 275 275 277 279 283 286 288 289 291 292 293 293 294 294 295 296 298 300 303 306 308 310 311 311 311 311 311 311 310 310 310 309 308 308 307 307 306 306 306 305 305 305 304 304 304 304
283 280 277 283 288 292 296 299 301 301 297 293 288 283 279 278 277 275 274 276 276 275 275 275 277 280 283 287 290 292 164 235 264 274 279 281 282 281 278 275 276 278 280 282 286 289 292 294 294 294 294 294 294 294 295 297 299 302 305 307 309 310 310 310 311 311 311 311 311 310 310 309 309 308 308 307 307 306 306 305 305 305 304 304 304 305
280 281 283 287 291 293 296 299 298 296 292 289 286 282 281 282 282 281 281 283 285 287 290 291 294 298 304 302 302 297 269 261 269 279 287 283 280 279 280 281 283 285 285 287 290 293 296 296 295 294 293 293 294 295 296 298 301 304 306 307 309 309 310 310 310 310 311 310 310 310 310 309 309 308 308 307 306 306 306 305 305 305 305 305 305 305
278 284 290 292 291 290 290 291 291 291 292 290 288 288 290 293 296 297 300 298 296 296 297 297 298 297 293 283 277 271 257 247 247 263 276 277 280 284 290 292 290 287 285 289 294 297 298 296 294 293 293 294 295 297 298 301 303 306 307 307 308 308 309 309 310 310 310 310 310 310 310 309 309 308 308 307 307 306 306 306 306 306 306 305 305 305
278 284 288 288 285 282 282 285 288 292 294 292 290 290 293 293 291 290 290 291 292 292 292 290 287 281 273 266 260 252 227 196 189 218 258 273 281 288 295 294 289 286 286 292 297 300 298 295 294 294 295 296 298 300 302 304 305 306 306 307 307 308 308 308 309 309 310 310 310 310 310 310 309 309 308 307 307 307 307 307 307 307 306 306 305 305
277 279 280 281 281 283 286 288 291 294 293 289 286 284 281 281 280 281 282 284 285 284 283 283 282 281 279 272 263 241 181 162 175 216 260 276 283 288 293 294 292 290 291 296 298 299 297 297 297 297 297 298 300 302 304 306 306 307 307 307 307 307 307 308 308 309 310 310 310 310 310 310 310 309 308 308 308 308 308 308 307 307 306 306 305 304
278 281 284 290 295 299 303 304 304 303 302 299 294 290 287 289 292 293 293 290 288 285 284 284 285 285 288 284 275 246 151 149 173 221 260 279 288 292 295 295 294 294 296 299 300 301 300 299 299 299 299 300 303 306 307 308 308 307 307 307 307 306 307 307 308 309 310 310 310 311 310 310 310 309 309 309 309 308 308 308 307 307 306 306 304 303
286 291 296 302 306 309 309 307 305 302 300 298 296 295 297 300 301 299 297 298 299 299 295 293 292 292 293 292 290 278 141 153 181 218 249 275 286 291 295 298 299 300 300 301 301 302 302 300 300 300 301 304 307 309 310 310 309 308 307 306 306 306 306 307 308 309 310 310 310 310 310 310 310 309 309 309 309 308 308 307 307 307 306 306 304 302
301 306 311 311 308 302 297 293 292 292 293 294 296 298 300 301 299 297 297 302 305 304 297 294 293 292 293 293 295 297 227 188 190 204 243 272 281 287 296 302 305 306 305 303 302 301 300 299 299 301 305 309 311 311 311 310 309 308 307 306 306 306 307 308 309 309 310 310 311 310 310 310 310 309 309 309 308 308 307 307 307 306 306 305 303 300
314 310 304 299 296 294 293 292 292 293 294 296 297 300 301 298 295 294 298 303 303 298 292 289 288 288 289 292 295 292 255 201 158 150 267 282 284 289 300 308 311 311 310 307 304 302 298 299 303 306 310 312 312 310 310 310 309 308 307 307 307 307 308 309 310 310 310 311 310 310 310 310 309 309 309 308 308 307 307 307 307 306 306 304 302 299
303 296 291 292 294 296 298 298 298 299 299 299 301 304 306 303 299 298 301 302 299 293 290 288 288 289 294 299 296 286 262 103 91 79 317 294 293 299 310 313 314 314 315 314 310 305 301 303 306 309 311 311 311 310 310 310 310 308 307 307 308 308 309 311 311 311 311 310 310 310 310 309 309 309 308 308 307 307 307 307 308 307 306 304 301 299
299 298 297 298 300 300 301 300 301 301 302 304 307 312 318 318 315 312 310 304 297 290 288 288 291 298 312 313 308 305 330 57 68 42 319 302 302 308 314 312 311 312 316 316 313 309 307 306 307 309 311 311 310 310 310 310 309 308 308 308 308 309 311 312 312 312 311 310 310 310 309 309 309 308 308 307 307 307 307 308 309 309 307 305 302 300
303 302 302 302 302 302 300 301 302 304 305 307 311 318 329 333 330 323 314 305 298 291 287 290 299 312 328 322 316 315 332 6 15 358 333 314 305 304 307 306 306 309 313 313 309 306 305 305 308 312 313 311 310 310 309 308 307 307 308 309 308 309 312 313 313 312 311 310 310 309 309 309 308 308 307 307 307 308 309 310 311 311 309 306 303 300
305 304 303 300 299 300 301 305 309 310 310 310 312 320 331 338 334 326 314 306 303 300 297 303 313 322 321 309 303 302 309 327 349 356 347 324 307 301 303 303 305 307 311 310 306 300 296 300 305 309 312 311 310 309 308 307 306 307 309 310 309 310 312 313 313 312 311 310 309 308 308 308 308 308 308 308 308 309 310 311 312 312 311 307 303 302
305 303 301 299 300 303 309 314 316 316 315 316 320 326 336 340 336 327 318 313 311 313 315 321 323 321 313 303 297 294 299 327 353 358 347 325 309 302 304 303 306 309 314 311 308 303 297 300 305 308 309 309 308 306 305 306 307 309 310 310 310 310 312 314 313 311 310 309 308 307 307 308 308 308 308 309 310 311 312 313 313 312 311 308 305 303
307 306 305 306 309 314 318 320 320 320 319 322 326 331 338 341 338 331 322 316 312 314 322 326 322 316 312 309 307 307 312 334 351 354 343 326 313 305 304 305 309 313 314 311 309 307 303 303 306 307 308 307 305 304 304 307 309 310 310 309 309 309 311 312 311 310 308 307 307 307 308 308 309 309 310 312 313 314 314 314 313 313 312 310 308 305
311 312 313 317 319 322 322 322 321 320 320 323 327 331 336 338 337 332 322 311 304 301 302 301 297 297 297 300 304 309 316 329 342 347 342 330 317 309 302 305 310 312 312 309 307 306 305 305 306 306 306 304 304 304 306 310 311 310 309 309 309 310 310 309 308 307 307 307 308 308 309 309 310 310 312 314 315 315 315 315 314 313 312 311 309 307
315 317 320 323 325 325 323 321 320 319 320 322 325 329 332 334 333 329 318 307 299 297 290 279 268 265 270 281 293 303 313 324 335 341 342 330 318 306 300 301 306 308 308 307 307 308 307 306 305 305 304 302 302 305 310 313 312 311 310 312 313 312 309 308 307 307 307 307 308 308 309 310 311 313 315 316 316 317 316 315 315 314 313 311 309 306
318 320 323 326 326 325 321 319 318 318 319 320 322 324 326 328 327 322 311 301 292 286 279 270 262 257 261 269 275 282 289 300 313 325 332 322 312 303 299 300 303 305 306 307 308 308 307 305 304 304 303 301 300 302 305 309 311 312 313 314 312 310 307 307 308 309 308 307 307 308 310 313 315 317 318 318 319 319 317 316 315 314 313 311 308 305
321 322 324 325 325 323 321 319 317 316 316 317 319 319 319 320 318 313 301 290 279 273 270 270 267 260 252 252 253 255 261 275 288 303 315 314 310 305 300 301 303 306 309 309 307 305 302 300 299 300 301 301 301 302 303 305 309 312 315 314 310 307 306 309 311 310 308 308 309 311 314 318 319 320 319 319 319 318 316 314 313 313 313 311 308 306
320 320 320 321 321 321 319 315 313 311 311 313 314 314 313 310 305 293 274 266 260 257 259 260 260 257 248 243 239 239 238 254 276 298 312 313 305 299 297 302 306 309 311 308 303 299 297 295 293 293 294 296 298 300 302 305 309 313 316 314 311 310 312 313 312 310 308 310 314 317 319 320 320 320 318 318 317 315 313 311 310 310 310 309 309 309
315 314 315 316 316 315 311 308 306 306 309 312 314 314 314 311 298 259 229 223 219 225 244 255 262 264 259 245 234 225 211 210 229 274 293 284 278 280 287 296 302 306 308 304 300 296 293 292 292 292 292 293 295 297 299 303 308 311 311 308 306 306 309 309 309 310 313 316 319 320 320 319 319 318 317 316 313 310 308 306 304 304 305 304 304 305
308 308 310 311 310 308 305 301 301 302 309 310 313 318 325 320 302 268 229 205 185 174 285 295 296 296 292 279 260 239 206 203 219 245 242 238 242 254 269 284 294 300 303 300 297 294 291 291 291 292 294 296 298 300 301 303 306 307 305 303 304 305 305 306 311 317 322 322 321 320 320 319 318 317 316 313 310 307 304 302 301 301 302 302 301 299
304 306 307 306 303 300 298 298 301 308 317 319 323 330 340 326 306 290 275 271 55 36 337 311 305 302 301 305 310 318 332 324 299 280 264 233 230 243 268 285 293 298 299 298 297 296 295 294 293 293 295 298 299 300 300 302 302 302 300 302 306 309 309 313 319 323 323 321 320 319 320 318 317 315 312 309 307 304 303 301 300 300 300 300 300 299
306 307 307 304 301 299 299 305 316 327 332 330 333 340 346 324 307 303 311 336 357 345 319 311 306 306 307 315 322 329 334 327 318 312 309 303 288 285 294 301 303 303 302 300 299 300 301 299 296 296 299 300 299 297 296 297 298 300 301 304 306 307 305 309 315 318 318 317 318 318 319 318 316 313 309 307 305 304 304 303 303 303 302 302 302 304
308 308 307 305 304 305 309 319 330 337 335 331 337 346 347 324 311 306 310 321 330 332 328 323 317 314 317 326 331 333 330 328 326 323 319 319 317 315 313 312 311 309 306 301 299 297 298 298 299 300 301 299 294 292 290 293 296 299 302 306 308 306 303 305 309 313 315 316 316 316 318 318 315 313 310 309 308 307 307 306 307 308 310 312 314 315
309 309 309 309 310 312 315 326 335 337 327 328 339 351 346 317 305 301 310 323 333 335 332 323 319 318 322 329 333 334 331 330 328 328 326 325 324 323 322 319 316 312 307 300 294 290 287 288 292 296 299 295 291 287 286 291 297 302 307 310 311 310 307 308 310 312 314 314 314 315 317 317 315 313 310 311 310 310 308 307 309 312 315 318 320 320
313 312 311 311 311 312 315 326 333 330 317 323 343 359 344 307 297 298 313 325 329 327 321 318 319 323 327 332 335 335 332 330 328 327 327 327 328 328 328 325 321 315 308 301 294 288 280 278 280 283 288 290 290 290 290 296 301 306 310 313 313 313 311 311 313 315 315 314 314 315 317 317 316 313 311 311 311 311 310 311 312 314 317 320 321 322
314 313 311 310 310 311 316 329 332 325 310 313 336 5 336 309 306 306 310 314 316 318 322 326 329 331 332 335 337 337 333 329 327 326 326 328 330 331 332 328 324 319 313 308 300 293 284 275 268 265 268 274 282 290 297 302 306 309 311 313 313 313 311 312 315 317 317 315 315 315 316 315 313 311 310 311 312 313 314 315 316 318 320 322 324 325
315 313 312 312 312 315 323 335 332 315 298 295 295 297 301 306 309 309 308 304 306 316 328 335 336 335 335 337 338 337 333 329 326 325 327 330 332 333 332 330 328 325 322 317 311 303 294 278 261 249 245 253 268 283 295 302 307 310 311 312 312 312 311 313 316 319 320 317 315 314 313 309 304 302 303 306 309 311 313 314 316 318 322 324 326 327
319 318 317 315 314 318 327 331 320 303 287 279 268 259 254 282 290 291 292 289 300 316 333 339 338 336 335 337 337 336 334 330 328 328 330 334 335 334 332 332 332 332 330 328 324 319 313 298 269 241 228 230 245 270 291 301 308 311 312 312 312 312 313 314 317 319 320 317 315 313 311 307 303 300 301 304 307 309 311 314 317 320 324 325 327 330
324 324 322 319 317 318 324 322 309 294 283 277 271 268 267 271 274 277 278 286 304 323 338 340 338 335 335 337 337 336 334 331 329 330 332 334 335 334 333 335 336 337 336 334 333 332 329 328 320 290 224 213 225 251 287 303 310 313 313 313 315 316 315 315 316 318 318 315 313 311 310 309 309 310 310 309 309 311 313 316 318 321 325 327 330 334